Weather in Kritovo

Russia / Oryol Oblast     52°43′07″N   36°41′46″E
temp.,
°C
wind,
m/s
gust,
m/s
humid.,
%
clouds,
%
prec.,
mm/h
press.,
hPa
HPBL,
m
14 april, wed
wed1400:00+12sse49815 0.0 1020248
03:00+10sse479499 0.0 1021172
06:00+9s349571 0.0 102076
09:00+12se3478100 0.0 1020378
12:00+16se3559100 0.0 10181133
15:00+19se572853 0.0 10162312
18:00+17se4737100 0.0 1015280
21:00+14se2244100 0.0 101619
15 april, thu
thu1500:00+12ese3553100 0.0 101592
03:00+12e4752100 0.0 1014106
06:00+11e41058100 0.0 1014245
09:00+14se5105499 0.0 1013992
12:00+16se684856 0.1 10131843
15:00+16s565233 0.4 10131324
18:00+15sse355092 0.4 1013172
21:00+13ssw2460100 0.4 101498
16 april, fri
fri1600:00+12se2367100 0.0 101467
03:00+9sse118047 0.0 101510
06:00+10ese3578100 0.0 1015126
09:00+12se6872100 0.2 1016769
12:00+14e576189 0.6 10161385
15:00+16se4846100 2.3 10162100
18:00+14s365320 0.1 1016706
21:00+11n226954 0.1 101822
17 april, sat
sat1700:00+10ene227865 0.0 101839
03:00+8ne369456 0.3 1018130
06:00+8ne51097100 0.1 1018272
09:00+10ene61086100 0.3 1019549
12:00+14ene9126299 0.0 10181278
15:00+15e91361100 1.2 10181715
18:00+10ese5882100 1.9 1019511
21:00+9e41190100 3.8 1021751
18 april, sun
sun1800:00+8ese479159 2.9 1021491
03:00+8e248990 3.0 1022207
06:00+7ene3489100 0.1 1023101
09:00+8ene4585100 0.3 1023452
12:00+10ne5577100 0.2 1024714
15:00+9ene6880100 0.6 10241025
18:00+8e41080100 0.1 1025869
21:00+8ne2383100 0.1 1025100